Main page
METAR-TAF:

METAR-TAF

Airports :

Monroe Municipal Airport

Monroe, Wisconsin, United States

latitude: 42-36-54N, longitude: 089-35-27W, elevation: 1086 ft

Current weather observation

The report was made 11 minutes ago, at 09:15 UTC
Wind 14 mph from the South/Southwest
Temperature 52°F
Humidity 100%
Pressure 29.34 in. Hg
Visibility: 10 miles
Clear sky

METAR: KEFT 270915Z AUTO 20012KT 10SM CLR 11/11 A2934 RMK AO2 T01060106

Time: 03:26 (09:26 UTC)


TAF: missing

Weather observations and forecasts of more than 4000 airports (METAR and TAF reports).

The available stations are represented by yellow and red dots on the map.

Hover mouse over dot to see the name of the station.

Then click to see weather observations and forecasts.

To change the map : click on the green buttons with a black cross to zoom in, on the green button with a dash to zoom out, or on the green arrows for adjacent maps.


METAR-TAF: